Location: Binningen
(47.7924°N, 8.7261°E)
Time: 20:36:56
(UTC+00:00)

Cosmos 1818 - Pass Details

Date: 17 May 2021
Orbit: 771 x 802 km, 65.0° (Epoch: 21 June)

Event Time Altitude Azimuth Distance (km) Brightness Sun altitude
Rises 20:56:38 0° 320° (NW) 3,321 8.7 -15.3°
Reaches altitude 10° 20:59:05 10° 319° (NW) 2,387 7.4 -15.5°
Maximum altitude 21:04:33 70° 237° (WSW) 855 3.7 -16.0°
Enters shadow 21:07:40 26° 160° (SSE) 1,534 4.5 -16.3°
